Погода в Суре

Поиск расширенной информации на нашем сайте:

Полезная информация:

Новости сайта



02.01.2020
Опубликован Долгосрочный прогноз погоды по городам России и ближнего зарубежья на январь 2020 года.
Карты: Прогноз на январь и февраль 2020 года, Сравнение прогнозируемой аномалии приземной температуры воздуха на январь 2020 года по разным моделям.




Погода в Суре - сегодня

Время (UTC), дата Ветер
(°,м/с) 
Видим.   Явления Облачность Т
(°С)
Тd
(°С)
f(%) Тe
(°С)
Pmin
(гПа)
dP
(гПа)
Po
(мм)
O2
(г/м3)
Тmin Tmax R s Состояние
почвы
18 24.09.21 120 (ЮВ) 3{10}  4000 м  слаб. ливневой дождь  10/10 600 м кучево-дожд. 
[Cb cap]
+8.7 +7.8 94 +8  1013  -0.9  754  293           
21 24.09.21 120 (ЮВ) 4000 м  слаб. ливневой дождь  10/10 540 м кучево-дожд. 
[Cb cap]
+8.5 +8 97 +8  1012.3  -0.9  754  293           
00 25.09.21 120 (ЮВ) 4000 м  слаб. ливневой дождь  10/10 210 м кучево-дожд. 
[Cb cap]
+8.4 +8.1 98 +8  1011  -1.2  753  293           
03 25.09.21 120 (ЮВ) 4000 м  слаб. ливневой дождь  10/10 300 м кучево-дожд. 
[Cb cap]
+8.3 +7.9 97 +8  1009.7  -1.3  752  293  +8.3       
06 25.09.21 130 (ЮВ) 20000 м  в посл. час ливневой дождь  10/10 420 м кучево-дожд. 
[Cb cap]
+8.3 +7.6 95 +8  1009.2  -0.5  751  292  +8.2         
09 25.09.21 140 (ЮВ) 20000 м    10/10 480 м 
[Sc]
+9.2 +7.9 92 +9  1009  -0.1  751  291           
12 25.09.21 120 (ЮВ) 10 км    10/10 420 м 
[Sc]
+9 +8.3 95 +9  1008.7  -0.3  751  291           
15 25.09.21 120 (ЮВ) 4000 м  слаб. дождь  10/10 270 м 
[Frnb|Ns]
+8.3 +7.6 95 +8  1008.5  -0.2  751  292    +9.4  0.3     
18 25.09.21 120 (ЮВ) 4000 м  слаб. дождь  10/10 240 м 
[Frnb|Ns]
+6.5 +6.1 97 +6  1009.1  0.5  751  295           
21 25.09.21 110 (В) 4000 м  слаб. дождь  10/10 270 м 
[Frnb|Ns]
+6.4 +6 97 +5  1009.9  0.8  752  295           
00 26.09.21 110 (В) 4000 м  слаб. дождь  10/10 330 м 
[Frnb|Ns]
+6.2 +5.8 97 +6  1010.6  0.8  752  295           
03 26.09.21 130 (ЮВ) 10 км  в посл. час дождь  10/10 420 м 
[Ns]
+6.1 +5.8 98 +7  1011.9  1.3  753  296  +6.1       
06 26.09.21 130 (ЮВ) 20000 м  {дождь}  10/10 480 м 
[Sc]
+7.4 +6.4 93 +8  1013.6  1.7  755  295           
09 26.09.21 090 (В) 10 км    10/10 500 м кучево-дожд. 
[Cb cap]
+9.4 +7.6 89 +9  1015.2  1.7  756  293           
12 26.09.21 060 (СВ) 10 км  {ливн. осадки}  10/10 570 м кучево-дожд. 
[Cb cap]
+9.7 +7.7 87 +11  1017  1.8  757  293           
15 26.09.21 340 (С) 10 км    10/3 600 м средняя 
[Sc|Ac As]
+8.7 +7.8 94 +10  1018.8  1.6  758  295    +9.7  0.0     
18 26.09.21 тихо ()   4000 м  в посл. час дождь  10/10 2000 м 
[Ns]
+8 +7.7 98 +8  1020.6  1.9  760  296           
21 26.09.21 070 (В) 4000 м  дымка  10/10 2000 м 
[Ac As]
+7.2 +6.5 95 +8  1022.6  1.9  761  298           
00 27.09.21 080 (В) 10 км    10/10 480 м 
[Sc]
+6.7 +5.4 91 +7  1024.7  2.1  763  299           
03 27.09.21 020 (С) 10 км    10/10 600 м 
[Sc]
+6.1 +5.2 94 +7  1026.3  1.6  764  300  +6.1    0.5     
06 27.09.21 040 (СВ) 20000 м    10/10 540 м 
[Sc]
+6.9 +5.6 91 +7  1027.8  1.5  765  300           
09 27.09.21 070 (В) 20000 м    10/10 500 м 
[Sc]
+7.4 +5.6 88 +7  1029.4  1.6  766  300           
12 27.09.21 110 (В) 20000 м    10/10 480 м 
[Sc]
+7.4 +5.4 87 +7  1030.4  767  300           
15 27.09.21 340 (С) 20000 м    10/10 600 м 
[Sc]
+6.6 +4.6 87 +8  1031.4  768  301    +7.6       
18 27.09.21 тихо ()   0500 м  туман  ясно 
+1.5 +1.3 99 +2  1032.3  0.8  768  308           
Время (UTC), дата Ветер
(°,м/с) 
Видим.   Явления Облачность Т
(°С)
Тd
(°С)
f(%) Тe
(°С)
Pmin
(гПа)
dP
(гПа)
Po
(мм)
O2
(г/м3)
Тmin Tmax R s Состояние
почвы

Для получения пояснительной информации подведите курсор к названию столбца.

ПОГОДА в Суре - архив

Всё, что Вы хотите узнать о погоде в Суре - удобно и подробно!

Выберите нужную дату (начиная с 1 января 2019* года) и нажмите кнопку "Найти".
Будут отображены архивные сводки погоды по пункту Сура, начиная с указанной даты.


Отображать данные в формате CSV (для использования в таблицах Excel)


Внимание! Наш архив погоды предназначен исключительно для личного некоммерческого использования в познавательных целях. Если Вам необходимы официальные справки о состоянии погоды (для производственных, юридических, коммерческих и т.п. целей), обращайтесь в органы Росгидромета.

*Примечание: данная дата относится к архиву по метеостанциям СССР (Россия, СНГ, Балтия).
Архив по метеостанциям Зарубежной Европы и Азии (кроме Китая) хранится 10 дней, по другим регионам земного шара (Китай, Африка, Америка, Австралия, Океания) - 1 день.

Сура - район местоположения метеостанции


Название, широта, долгота, высота метеостанции:
Сура 63.6°ш. 45.6°д. 62 м над ур. моря [Российская Федерация]

Дополнительная информация

В oтличие oт бoльшинства пoгoдных сайтoв мы публикуем пoдрoбную метеoинфoрмацию в детальнoм прoфессиoнальнoм фoрмате.

Характеристики температуры и влажнoсти вoздуха измеряются на высoте 2 м в тени вдали oт зданий и деревьев.
Скoрoсть ветра измеряется на высoте 10 м (на урoвне рoста челoвека скoрoсть ветра ниже в 1.5-2 раза). Если метеoстанция нахoдится в гoрoде или в лесу, тo скoрoсть ветра занижена на 2-4 м/с пo сравнению с oткрытым местoм. Скoрoсть ветра над акватoриями крупных рек и oзёр, а также на вершинах хoлмoв на 2-5 м/с выше, чем в oбычных услoвиях.
Атмoсфернoе давление в разных тoчках местнoсти мoжет значительнo oтличаться oт давления на метеoстанции, в зависимoсти oт услoвий рельефа (при пoдъёме на 10 м давление пoнижается примернo на 1 мм рт.ст.).